Temperature
18 18 18 18 18 18 18 18 18 18 18 18 18 18 18 19 19 19 19 19 19 19 19 19 19 19 19 19 19 19 19 19 19 18 18 18 18 18 18 18 18 18 18
19 18 18 18 18 18 18 18 18 18 18 18 18 18 18 18 18 18 18 19 19 19 19 19 19 19 19 19 19 19 19 18 18 18 18 18 18 18 18 18 18 18 18
18 18 18 18 18 18 18 18 18 18 18 18 18 18 18 18 18 18 18 18 18 18 18 18 18 19 19 18 19 19 18 18 18 18 18 18 18 18 18 18 18 18 18
18 18 18 18 18 18 18 18 18 18 18 18 18 18 18 18 18 18 18 18 18 18 18 18 18 18 18 18 18 18 18 18 18 18 18 18 18 18 18 18 18 18 18
18 18 18 18 18 18 18 17 17 17 17 17 17 17 17 17 17 17 18 18 18 18 18 18 18 18 18 18 18 18 18 18 18 18 18 18 18 18 18 18 18 18 18
18 18 18 18 17 17 17 17 17 17 17 17 17 17 17 17 17 17 17 17 17 18 18 18 18 18 18 18 18 18 18 18 18 18 18 18 18 18 18 18 18 18 18
18 18 18 17 17 17 17 17 17 17 17 17 17 17 17 17 16 17 17 17 17 17 17 17 18 18 18 18 18 18 18 18 18 18 18 18 18 18 18 18 18 18 18
18 18 18 17 17 17 17 17 17 16 16 16 16 16 16 16 16 16 16 17 17 17 17 17 17 17 17 17 17 17 18 18 18 18 18 18 18 18 18 18 18 18 18
18 18 17 17 17 17 17 17 16 16 16 16 16 16 16 16 16 16 16 16 16 16 16 17 17 17 17 17 17 17 17 17 18 18 18 18 18 18 18 18 18 18 18
18 18 17 17 17 17 17 16 16 16 16 16 16 15 15 15 15 15 15 16 16 16 16 16 16 17 17 17 17 17 17 17 18 18 18 18 18 18 18 18 18 18 18
18 18 17 17 17 17 16 16 16 16 15 15 15 15 15 15 15 15 15 15 16 16 16 16 16 16 16 17 17 17 17 17 17 18 18 18 18 18 18 18 18 18 18
18 18 17 17 17 17 16 16 16 16 15 15 15 15 15 15 15 15 15 15 15 15 15 16 16 16 16 16 16 17 17 17 17 17 17 17 17 18 18 18 18 18 18
18 18 18 17 17 17 16 16 16 15 15 15 15 15 14 14 14 14 15 15 15 15 15 15 15 15 16 16 16 16 17 17 17 17 17 17 17 17 17 17 17 17 17
18 18 18 17 17 17 16 16 15 15 15 15 15 14 14 14 14 14 14 14 15 15 15 15 15 15 15 15 16 16 16 16 17 17 17 17 17 17 17 17 17 17 17
18 18 18 17 17 16 16 16 15 15 15 15 14 14 14 14 14 14 14 14 14 14 14 15 15 15 15 15 15 16 16 16 17 17 17 17 17 17 17 17 17 17 17
19 18 18 17 17 16 16 16 15 15 15 14 14 14 14 14 14 14 14 14 14 14 14 14 15 15 15 15 15 15 16 16 16 16 17 17 17 17 17 17 17 17 17
19 18 18 17 17 16 16 15 15 15 14 14 14 14 14 14 13 14 14 14 14 14 14 14 14 14 15 15 15 15 15 16 16 16 16 17 17 17 17 17 17 17 17
19 18 18 17 17 16 16 15 15 15 14 14 14 14 13 13 13 13 13 13 14 14 14 14 14 14 14 14 15 15 15 15 16 16 16 16 17 17 17 17 17 17 17
19 18 18 17 17 16 16 15 15 15 14 14 14 13 13 13 13 13 13 13 13 13 13 13 14 14 14 14 14 15 15 15 16 16 16 16 16 17 17 17 17 17 17
19 18 18 17 17 16 16 15 15 14 14 14 13 13 13 13 13 13 13 13 13 13 13 13 13 14 14 14 14 14 15 15 15 16 16 16 16 16 16 17 17 17 17
19 18 18 17 17 16 16 15 15 14 14 14 13 13 13 13 13 13 13 13 13 13 13 13 13 13 14 14 14 14 15 15 15 15 16 16 16 16 16 16 16 16 17
19 19 18 17 17 16 16 15 15 14 14 14 13 13 13 13 13 12 12 12 12 12 13 13 13 13 13 13 14 14 14 14 15 15 15 16 16 16 16 16 16 16 16
19 19 18 18 17 16 16 15 15 14 14 14 13 13 13 13 13 12 12 12 12 12 12 12 13 13 13 13 13 14 14 14 15 15 15 15 16 16 16 16 16 16 16
19 19 18 18 17 16 16 15 15 15 14 14 13 13 13 13 12 12 12 12 12 12 12 12 13 13 13 13 13 13 14 14 14 14 15 15 15 16 16 16 16 16 16
20 19 18 18 17 16 16 15 15 14 14 14 13 13 13 13 12 12 12 12 12 12 12 12 12 13 13 13 13 13 13 14 14 14 14 15 15 15 15 16 16 16 16
20 19 18 18 17 17 16 15 15 15 14 14 13 13 13 13 13 13 12 12 12 12 12 12 12 12 13 13 13 13 13 14 14 14 14 14 15 15 15 15 15 16 16
Wind_Speed
2 4 8 9 9 9 9 8 8 8 8 8 9 8 8 8 8 7 7 7 6 6 5 5 5 5 5 5 5 5 5 4 4 4 4 4 4 4 4 4 4 3 4
5 6 9 9 8 8 8 7 7 7 7 7 7 7 7 7 6 6 6 5 5 4 4 4 4 4 4 4 4 4 4 4 4 4 3 3 3 3 4 4 4 3 4
6 6 9 9 9 8 7 6 6 6 5 5 6 5 5 5 5 4 4 4 3 3 3 3 2 2 2 2 2 3 3 3 3 3 3 3 3 2 2 3 3 4 4
7 7 7 9 8 8 7 6 5 5 5 4 4 4 3 3 3 3 3 3 2 2 2 2 1 1 1 1 1 2 2 2 3 3 3 2 3 1 1 2 2 4 4
6 6 7 8 8 7 6 5 4 4 3 3 2 2 2 2 2 2 2 2 3 2 2 2 1 1 1 1 1 1 2 2 2 3 3 2 3 1 0 1 2 3 4
5 6 7 8 7 6 5 4 4 3 2 1 1 1 2 2 2 3 3 3 3 3 3 3 2 2 2 2 2 2 2 2 2 3 2 2 2 2 1 1 1 2 3
5 5 6 7 6 5 4 3 3 2 1 1 0 1 2 3 4 4 5 5 4 4 4 4 3 3 3 3 4 3 3 3 1 1 2 2 3 3 1 1 1 2 3
5 4 4 5 5 4 3 2 1 1 0 1 1 2 3 3 4 5 6 6 6 6 6 5 5 4 3 4 4 5 4 3 1 1 2 3 4 3 2 2 2 2 3
4 3 2 1 2 2 2 2 1 1 1 2 3 3 3 4 4 6 6 6 7 7 6 6 6 5 5 5 5 6 5 3 1 1 2 3 4 4 3 3 3 3 3
3 2 2 1 1 1 1 1 1 1 2 3 4 4 4 4 5 6 6 6 7 7 7 6 6 6 6 6 5 5 5 3 1 2 2 4 6 6 4 4 4 4 4
3 2 2 2 1 0 1 2 3 3 4 4 5 5 5 4 4 5 6 6 6 6 6 6 6 6 6 6 6 6 4 2 2 2 3 5 7 6 6 5 5 5 5
5 3 3 3 1 1 1 2 3 3 4 4 4 5 4 4 4 4 6 7 7 6 6 6 6 5 4 4 5 5 3 2 2 3 4 6 7 7 7 6 7 6 6
5 3 3 3 2 2 0 1 1 2 2 3 4 3 3 4 4 4 4 5 6 6 5 6 4 2 1 2 3 3 3 3 3 4 5 6 7 7 7 7 8 8 7
5 4 3 3 3 2 1 1 1 1 1 2 3 2 2 2 2 2 2 3 3 3 3 3 2 2 2 2 3 3 4 3 3 4 6 7 7 7 7 8 8 9 9
5 5 4 4 4 3 2 1 1 0 1 1 2 2 2 1 1 1 2 2 2 2 2 2 2 2 2 2 3 3 3 3 4 5 5 6 6 7 8 8 8 9 9
6 6 4 4 4 3 2 2 1 1 1 1 2 2 1 1 1 1 1 2 2 2 2 2 2 2 2 2 3 3 3 3 3 5 5 5 5 6 7 7 8 9 10
6 6 5 5 4 3 3 2 1 1 1 1 1 2 1 1 0 0 1 2 2 3 2 2 2 1 2 1 2 3 3 3 3 4 5 4 4 5 6 7 7 8 9
7 6 5 4 5 3 2 2 1 1 1 0 1 2 2 2 1 1 1 2 3 2 1 1 1 1 1 1 2 2 2 2 3 3 3 3 3 3 3 5 6 7 8
8 7 5 4 5 3 2 2 1 1 1 1 1 2 2 2 2 1 1 2 2 1 1 2 0 1 1 2 2 2 2 2 2 1 1 2 2 2 2 3 5 6 7
7 6 6 5 4 3 2 2 2 1 1 1 1 2 2 2 3 1 1 2 2 1 1 1 1 1 1 2 2 1 2 2 1 1 2 1 1 1 2 2 3 5 6
6 6 6 6 4 3 2 1 1 1 1 1 2 2 3 3 3 2 2 2 2 1 2 1 0 1 1 0 1 2 2 2 1 1 1 0 0 1 1 2 3 3 4
8 8 7 6 5 4 3 2 2 1 1 2 2 2 3 3 3 2 2 2 2 1 2 1 0 0 1 0 1 1 1 3 2 1 1 0 1 1 1 1 2 3 4
9 9 8 7 6 5 3 2 2 2 2 2 2 2 3 4 4 3 2 2 2 1 1 2 1 1 1 1 1 2 2 2 1 2 2 1 1 1 1 1 1 3 4
10 8 7 7 6 5 4 3 3 2 2 3 2 3 4 4 3 3 2 2 2 1 2 2 1 1 2 1 0 0 1 2 2 0 2 2 1 1 1 1 0 1 2
8 7 7 6 6 5 5 5 4 3 2 2 2 3 3 3 3 3 3 2 2 2 2 2 1 1 2 2 1 1 1 1 1 2 0 2 2 2 1 1 0 0 1
6 6 6 7 6 5 5 5 5 5 3 2 2 3 3 3 3 4 3 2 2 2 2 2 1 2 2 2 1 1 2 2 1 2 2 0 1 2 1 1 1 1 1
Wind_Direction
175 180 164 146 140 138 135 132 130 124 123 124 125 126 128 129 129 127 126 124 124 121 116 112 109 107 99 90 84 80 75 72 71 65 60 59 61 62 58 54 53 46 45
152 161 155 147 142 139 137 136 131 127 126 126 125 126 128 128 129 130 131 131 130 129 125 120 115 112 103 92 85 81 74 63 56 49 48 51 51 57 57 58 57 51 45
136 150 153 151 146 144 143 141 136 128 124 127 127 127 129 131 131 132 137 140 141 145 147 143 135 126 114 102 83 73 66 54 43 39 38 27 7 48 62 59 60 54 49
138 141 148 151 145 142 140 139 135 133 131 131 132 132 139 143 141 151 161 164 167 172 177 177 175 169 154 120 67 49 41 30 30 36 30 4 341 23 71 63 65 62 57
134 138 152 150 148 147 145 143 139 138 139 140 147 157 171 180 199 208 210 211 214 217 218 212 226 239 247 271 296 348 359 7 20 30 12 357 342 322 106 81 72 72 64
135 142 159 155 152 151 149 146 142 144 145 155 180 231 253 250 255 252 248 250 249 249 246 241 240 257 267 278 283 298 317 339 26 19 358 336 318 295 237 133 95 81 76
144 149 164 162 159 154 149 148 145 145 150 165 264 295 288 276 273 269 264 262 259 258 260 266 264 268 278 287 289 289 295 311 10 352 330 294 287 280 239 195 151 104 90
149 147 158 169 163 160 160 158 152 158 211 282 311 314 308 297 288 285 281 271 265 263 264 267 270 273 277 286 294 293 287 295 329 322 306 277 273 270 235 205 186 142 108
137 133 136 136 156 172 181 185 199 250 300 314 318 314 313 311 307 303 302 291 277 271 264 261 264 266 273 283 289 290 288 281 278 258 290 283 274 263 240 210 192 160 133
126 143 159 145 121 42 351 307 306 318 336 342 338 335 337 340 337 329 324 312 298 284 275 268 269 276 276 284 288 288 297 297 255 240 272 280 274 263 244 214 197 173 151
171 174 169 150 160 290 300 329 358 5 15 14 6 3 9 3 347 336 331 327 319 305 293 282 277 276 275 283 292 300 306 302 266 249 258 276 270 257 240 217 202 185 170
195 197 181 178 188 210 299 19 13 21 24 23 19 12 10 3 347 345 342 342 339 335 328 306 284 271 280 288 292 304 304 285 265 257 258 271 266 252 237 218 205 194 179
194 191 181 183 182 171 144 23 26 30 26 17 13 9 11 10 1 359 354 348 350 348 348 336 330 302 286 268 272 277 270 266 264 268 273 275 268 252 239 221 207 198 190
175 191 186 171 168 166 143 100 81 51 32 17 4 13 46 33 7 352 350 340 347 342 334 332 329 317 290 273 262 257 255 252 259 268 272 271 262 253 241 226 215 203 197
180 189 183 161 162 148 127 125 98 72 48 32 16 24 74 82 14 352 344 343 337 338 330 318 316 308 291 283 270 255 252 249 254 262 267 272 264 259 247 231 219 209 200
186 185 172 161 162 144 143 145 145 133 95 67 37 22 59 99 103 358 341 333 330 324 313 297 295 293 281 261 267 259 253 247 248 257 260 268 271 262 249 237 226 212 203
181 175 171 169 153 146 150 160 151 148 121 86 18 2 15 46 80 43 331 319 312 316 318 314 315 314 288 274 266 266 256 247 243 251 253 253 263 264 244 237 234 218 209
170 169 177 164 148 153 154 149 136 123 118 91 6 1 357 350 355 16 331 316 320 327 329 309 312 317 304 287 273 277 268 249 247 247 243 243 247 257 249 239 231 221 213
171 167 168 158 158 159 144 114 87 73 55 18 356 349 339 338 336 340 299 301 321 325 318 306 322 249 270 284 269 270 282 264 261 255 231 233 243 244 240 243 231 217 216
164 164 167 165 161 142 106 73 43 28 358 355 334 318 320 328 328 326 294 306 319 325 323 313 295 305 251 266 285 314 300 284 267 256 231 203 217 246 235 212 211 214 219
162 167 175 173 170 149 128 127 130 275 302 319 309 316 323 325 329 320 309 314 321 304 284 279 256 315 316 292 48 358 339 328 336 294 255 174 228 252 223 199 195 199 212
178 181 183 186 182 181 175 171 184 202 256 270 294 313 321 325 324 313 301 294 293 290 307 308 266 155 321 65 124 101 358 351 350 354 350 74 285 258 239 226 198 201 203
189 191 192 194 193 189 170 122 80 46 13 352 329 314 317 321 318 310 295 283 282 263 270 275 240 173 213 291 117 143 151 206 309 348 2 359 344 321 284 258 198 207 199
200 192 191 192 191 189 173 167 169 178 217 249 266 284 306 314 316 315 306 290 281 265 260 263 227 197 170 208 282 73 160 168 150 24 348 351 1 340 317 304 201 194 190
193 187 190 188 194 190 183 183 182 196 222 262 288 297 309 316 315 313 313 307 294 274 262 257 233 197 186 179 179 169 108 70 102 146 137 345 356 339 348 350 31 84 172
187 185 185 189 201 194 190 192 193 201 215 249 284 293 304 311 311 315 318 315 299 281 270 257 230 200 198 184 180 168 159 154 171 151 166 203 332 325 344 16 30 32 62
Height
1509 1510 1512 1513 1515 1516 1518 1519 1520 1521 1521 1522 1523 1523 1524 1524 1525 1525 1525 1526 1526 1526 1526 1526 1526 1526 1526 1526 1526 1525 1525 1525 1525 1525 1525 1524 1524 1523 1523 1522 1521 1520 1519
1509 1511 1512 1514 1515 1517 1518 1519 1520 1521 1522 1522 1523 1523 1524 1525 1525 1525 1526 1526 1526 1526 1526 1527 1526 1526 1526 1526 1526 1526 1526 1526 1525 1525 1525 1525 1524 1524 1523 1522 1521 1521 1520
1510 1512 1513 1515 1516 1517 1518 1519 1520 1521 1522 1522 1523 1524 1524 1525 1525 1525 1526 1526 1526 1526 1526 1526 1526 1527 1526 1526 1526 1526 1526 1526 1526 1526 1526 1525 1525 1524 1523 1523 1522 1521 1520
1511 1513 1514 1516 1517 1518 1519 1519 1520 1521 1522 1522 1523 1523 1524 1524 1525 1525 1525 1525 1526 1526 1526 1526 1526 1526 1526 1526 1526 1526 1526 1526 1526 1526 1526 1526 1525 1525 1524 1523 1523 1522 1520
1512 1514 1515 1516 1517 1518 1519 1519 1520 1521 1521 1522 1522 1523 1523 1524 1524 1524 1525 1525 1525 1525 1525 1525 1526 1526 1526 1526 1526 1526 1526 1526 1526 1526 1526 1526 1525 1525 1524 1524 1523 1522 1521
1513 1515 1516 1517 1517 1518 1519 1519 1520 1520 1521 1521 1521 1522 1522 1522 1523 1523 1523 1523 1524 1524 1524 1524 1524 1525 1525 1526 1526 1526 1526 1526 1526 1526 1526 1526 1526 1525 1525 1524 1524 1523 1522
1514 1515 1516 1517 1518 1518 1519 1519 1519 1520 1520 1520 1520 1520 1521 1521 1521 1521 1522 1522 1522 1522 1522 1523 1523 1523 1524 1524 1525 1525 1526 1526 1526 1526 1526 1526 1526 1525 1525 1525 1524 1524 1523
1515 1516 1517 1517 1518 1519 1519 1519 1519 1519 1519 1519 1520 1519 1519 1519 1519 1520 1520 1520 1520 1520 1521 1521 1522 1522 1522 1523 1523 1524 1525 1525 1525 1525 1526 1526 1526 1526 1525 1525 1525 1524 1523
1516 1517 1517 1518 1518 1519 1519 1519 1519 1519 1519 1519 1519 1519 1518 1518 1518 1518 1518 1518 1518 1519 1519 1519 1520 1520 1521 1521 1522 1523 1523 1524 1524 1525 1525 1526 1526 1525 1525 1525 1525 1525 1524
1516 1517 1518 1518 1519 1519 1519 1519 1519 1518 1518 1518 1518 1517 1517 1517 1517 1516 1516 1516 1516 1516 1517 1517 1518 1518 1519 1520 1520 1521 1522 1522 1523 1523 1524 1525 1525 1525 1525 1525 1525 1526 1526
1516 1517 1518 1519 1519 1519 1519 1519 1518 1518 1517 1517 1517 1517 1516 1516 1516 1515 1515 1515 1514 1514 1515 1515 1516 1516 1517 1518 1518 1519 1520 1521 1521 1522 1523 1524 1525 1525 1525 1525 1526 1526 1526
1516 1517 1518 1519 1519 1519 1519 1518 1518 1517 1517 1517 1516 1516 1515 1515 1515 1514 1514 1513 1513 1513 1513 1513 1513 1514 1514 1515 1516 1517 1518 1519 1520 1520 1522 1523 1523 1524 1524 1525 1525 1526 1527
1516 1517 1518 1518 1518 1518 1518 1518 1518 1517 1517 1516 1515 1515 1514 1514 1513 1513 1512 1512 1511 1511 1511 1511 1511 1511 1512 1512 1514 1514 1515 1517 1517 1518 1520 1521 1522 1523 1524 1524 1525 1526 1527
1515 1516 1517 1518 1518 1518 1518 1517 1517 1516 1516 1515 1514 1514 1513 1512 1512 1511 1511 1510 1510 1510 1509 1509 1509 1509 1509 1510 1511 1512 1513 1514 1515 1516 1518 1519 1520 1522 1522 1523 1524 1525 1526
1515 1516 1517 1517 1517 1517 1517 1517 1516 1515 1515 1514 1513 1513 1512 1511 1510 1510 1509 1509 1508 1508 1508 1508 1507 1507 1507 1508 1508 1509 1510 1511 1513 1514 1516 1517 1519 1520 1521 1522 1523 1524 1526
1514 1515 1516 1517 1517 1517 1516 1516 1515 1514 1514 1513 1512 1511 1510 1510 1509 1508 1507 1507 1506 1506 1506 1505 1505 1505 1505 1506 1506 1507 1508 1509 1510 1512 1513 1515 1516 1518 1519 1521 1522 1523 1525
1514 1515 1515 1516 1516 1516 1515 1515 1514 1513 1513 1512 1511 1510 1509 1508 1507 1506 1506 1505 1504 1504 1504 1503 1503 1503 1503 1504 1504 1504 1505 1506 1508 1509 1511 1512 1514 1516 1517 1519 1520 1522 1523
1513 1514 1515 1515 1515 1515 1515 1514 1513 1512 1512 1511 1510 1509 1508 1506 1505 1505 1504 1503 1502 1502 1501 1501 1501 1501 1501 1501 1502 1502 1503 1504 1506 1507 1508 1510 1512 1514 1515 1517 1518 1520 1522
1512 1513 1514 1515 1515 1514 1514 1513 1512 1511 1510 1509 1509 1507 1506 1505 1504 1503 1502 1501 1500 1500 1499 1499 1499 1499 1499 1499 1500 1500 1501 1502 1503 1505 1506 1508 1510 1511 1513 1515 1517 1518 1520
1511 1512 1513 1514 1514 1513 1513 1512 1511 1510 1509 1508 1508 1507 1505 1504 1503 1502 1501 1500 1499 1498 1497 1497 1497 1497 1497 1497 1497 1498 1498 1500 1501 1502 1504 1506 1507 1509 1511 1513 1515 1517 1518
1509 1511 1512 1513 1513 1513 1512 1511 1510 1509 1509 1508 1507 1506 1504 1503 1502 1500 1499 1498 1497 1497 1496 1495 1495 1495 1495 1495 1496 1496 1497 1498 1499 1500 1501 1503 1505 1507 1509 1511 1513 1515 1516
1507 1509 1511 1511 1512 1511 1511 1510 1509 1509 1508 1507 1506 1505 1503 1502 1501 1500 1498 1497 1496 1495 1494 1494 1493 1493 1493 1494 1494 1495 1496 1497 1497 1498 1499 1501 1503 1505 1507 1509 1511 1513 1515
1505 1507 1509 1510 1510 1510 1510 1509 1509 1508 1507 1506 1505 1504 1503 1501 1500 1499 1497 1496 1495 1494 1493 1492 1492 1492 1492 1492 1493 1494 1495 1494 1495 1496 1497 1499 1501 1503 1505 1507 1508 1510 1513
1503 1506 1507 1508 1509 1509 1509 1508 1507 1507 1506 1505 1504 1503 1502 1500 1499 1498 1496 1495 1494 1493 1492 1491 1491 1490 1491 1491 1491 1492 1494 1494 1494 1495 1496 1497 1499 1501 1503 1504 1506 1508 1510
1502 1504 1505 1507 1507 1507 1507 1507 1506 1505 1505 1504 1503 1502 1501 1499 1498 1497 1495 1494 1493 1492 1491 1490 1489 1489 1489 1490 1490 1491 1492 1493 1493 1494 1495 1496 1497 1499 1501 1502 1504 1506 1508
1500 1502 1503 1504 1505 1505 1505 1505 1505 1504 1503 1503 1502 1501 1500 1498 1497 1496 1495 1493 1492 1491 1490 1489 1488 1488 1488 1488 1489 1490 1490 1491 1492 1493 1494 1495 1496 1498 1499 1501 1502 1504 1506